Regional Weather Roundup
Issued by NWS

Home | Current Version | Previous Version | Text Only | Print | Product List | Glossary Off
Versions: 1 2 3 4 5 6 7 8 9 10 11 12 13 14 15 16 17 18 19 20 21 22 23 24 25 26 27 28 29 30 31 32 33 34 35 36 37 38 39 40 41 42 43 44 45 46 47 48 49 50

742
ASUS45 KSLC 180410
RWRUT

UTAH REGIONAL WEATHER ROUNDUP
NATIONAL WEATHER SERVICE SALT LAKE CITY UT
900 PM MST SUN DEC 17 2017

UTZ001>011-023>025-180500-

NORTHERN UTAH

CITY           SKY/WX    TMP DP  RH WIND       PRES   REMARKS
BRIGHAM CITY   CLOUDY    31  23  73 CALM      30.27R
HILL AFB       PTCLDY    27  22  80 CALM      30.24S
LOGAN          CLOUDY    30  23  75 W5        30.24R WCI  25
OGDEN          MOCLDY    26  22  84 CALM      30.25R
SALT LAKE CITY PTCLDY    30  24  78 CALM      30.26R
TOOELE VALLEY  PTCLDY    19  18  93 S7        30.26S WCI  10
WENDOVER       CLOUDY    31  20  63 CALM      30.25S
HEBER CITY       N/A     19  14  79 CALM      30.19R
WEST JORDAN    CLEAR     22  20  92 SW3       30.25S

$$

UTZ011>015-024>027-180500-

CENTRAL/NORTHEAST UTAH

CITY           SKY/WX    TMP DP  RH WIND       PRES   REMARKS
PROVO AIRPORT  PTCLDY    23  18  81 CALM      30.26R
MOAB/CANYONLAN CLEAR     25  10  53 W7        30.12R WCI  17
DELTA          CLEAR     23  19  86 E3        30.24S
PRICE          CLEAR     26  12  55 N8        30.11R WCI  18
RICHFIELD      CLEAR     21  14  73 S1        30.22S
ROOSEVELT      CLOUDY    25  14  63 CALM      30.15S
VERNAL         CLOUDY    25  15  66 W7        30.13R WCI  17

$$

UTZ013>016-019>022-027-180500-

SOUTHERN UTAH

CITY           SKY/WX    TMP DP  RH WIND       PRES   REMARKS
BRYCE CANYON   CLEAR     14  11  87 N6        30.15S WCI   5
CEDAR CITY     CLEAR     18  16  92 CALM      30.20R
MILFORD        CLEAR     19  15  84 E3        30.23R
ST GEORGE      PTCLDY    41  20  43 SE5       30.17R
HANKSVILLE     CLEAR     25  10  54 CALM      30.16R
KANAB          CLEAR     30  10  43 E6        30.18  WCI  24
BLANDING         N/A     26   6  41 N12       30.18R WCI  16

$$

REGIONAL REPORTS     COLORADO/ARIZONA

CITY           SKY/WX    TMP DP  RH WIND       PRES   REMARKS
CRAIG, CO      CLOUDY    11   8  88 CALM      30.14R
GRAND JUNCTION CLOUDY    22   6  50 E5        30.13R WCI  16
RIFLE, CO      CLOUDY    22   8  55 E3        30.14R
MONTROSE, CO   CLOUDY    22   6  50 SE9       30.16R WCI  12
CORTEZ, CO     CLOUDY    21   4  47 E8        30.11R WCI  11
COLORADO CITY    N/A     27  18  69 CALM      30.15R
PAGE, AZ       CLEAR     36  17  46 CALM      30.12R
GRAND CANYON   CLEAR     17   1  49 CALM      30.11R
KINGMAN, AZ    CLEAR     39  18  42 E14       30.10R WCI  31
FLAGSTAFF, AZ  CLEAR     25   9  50 CALM      30.07R

$$

REGIONAL REPORTS    NEVADA/IDAHO/WYOMING

CITY           SKY/WX    TMP DP  RH WIND       PRES   REMARKS
LAS VEGAS, NV  PTCLDY    53  16  23 N12       30.13R
ELY, NY        CLEAR     15   9  76 S7        30.21R WCI   5
ELKO, NV       PTCLDY    22  16  78 W5        30.24S WCI  16
POCATELLO, ID  CLOUDY    20  14  77 W6        30.25R WCI  12
BURLEY, ID     CLOUDY    33  22  63 CALM      30.23R
FORT BRIDGER,    N/A     23  17  77 W17G26    30.16R WCI   9
EVANSTON, WY   CLOUDY    18  15  88 W13       30.15R WCI   5
ROCK SPRINGS,  CLOUDY    22  13  68 W22       30.09R WCI   6

$$




USA.gov is the U.S. government's official web portal to all federal, state and local government web resources and services.